Regional Weather Roundup
Issued by NWS State College, PA

Home | Current Version | Previous Version | Text Only | Print | Product List | Glossary Off
Versions: 1 2 3 4 5 6 7 8 9 10 11 12 13 14 15 16 17 18 19 20 21 22 23 24 25 26 27 28 29 30 31 32 33 34 35 36 37 38 39 40 41 42 43 44 45 46 47 48 49 50

430
ASUS41 KCTP 272110
RWRCTP

REGIONAL WEATHER ROUNDUP
NATIONAL WEATHER SERVICE STATE COLLEGE PA
500 PM EDT MON MAR 27 2017

Note: "fair" indicates few or no clouds below 12,000 feet with no
significant weather and/or obstructions to visibility.

* = STATION THAT DOES NOT REPORT PRECIPITATION /E.G. RAIN...SNOW...ETC/
    THUNDER OR FOG.

PAZ002>004-007>009-013>016-020>023-029>032-272200-
WESTERN PENNSYLVANIA

CITY           SKY/WX    TMP DP  RH WIND       PRES   REMARKS
ERIE           CLOUDY    57  48  72 W12       29.92F
MEADVILLE      CLOUDY    61  46  57 SW7       29.90F
FRANKLIN*      CLOUDY    63  46  55 W10       29.92F
NEW CASTLE     MOCLDY    64  48  56 SW8       29.92F
BEAVER COUNTY  PTSUNNY   64  46  52 SW6       29.92F
BUTLER*        MOSUNNY   66  48  52 W10       29.93F
PITTSBURGH INT CLOUDY    67  48  50 SW8       29.92S
PITTSBURGH     MOSUNNY   68  46  45 SW13      29.91F
INDIANA*       PTSUNNY   66  48  52 W9G17     29.94F
LATROBE        PTSUNNY   68  50  52 SW13      29.92F
WASHINGTON CO* MOSUNNY   68  48  49 SW14      29.94S
$$

PAZ004>006-010>012-017>019-024>028-033>037-041-042-045-046-049>053-272200-
CENTRAL PENNSYLVANIA

CITY           SKY/WX    TMP DP  RH WIND       PRES   REMARKS
BRADFORD       CLOUDY    59  47  64 SW7       29.91F
DUBOIS         PTSUNNY   61  44  53 SW8       29.92F
CLEARFIELD       N/A    N/A N/A N/A MISG      29.92F
JOHNSTOWN      PTSUNNY   64  48  56 W14       29.93F
ALTOONA        PTSUNNY   71  50  47 SW12G22   29.92F
STATE COLLEGE  MOSUNNY   64  50  59 CALM      29.92F
WILLIAMSPORT   CLOUDY    59  48  67 E8        29.93F
SELINSGROVE    CLOUDY    57  51  80 SE8       29.95F
FT INDIANTOWN  PTSUNNY   55  55 100 S5        29.96F
CAPITAL CITY   MOSUNNY   57  48  72 E5        29.95F
HARRISBURG     CLOUDY    57  50  77 CALM      29.95F
YORK           SUNNY     65  56  72 N5        29.94F
$$

PAZ038>040-043-044-047-048-054-055-060>062-067>071-272200-
EASTERN PENNSYLVANIA

CITY           SKY/WX    TMP DP  RH WIND       PRES   REMARKS
SCRANTON       SUNNY     58  48  69 MISG      29.95F
MOUNT POCONO   SUNNY     56  49  77 W9        29.95S
ALLENTOWN      PTSUNNY   55  47  74 S7        29.98F
QUAKERTOWN*    CLOUDY    55  50  82 W5        29.99F
READING        CLOUDY    54  50  86 CALM      29.97F
LANCASTER      MOSUNNY   59  54  83 E3        29.96F
COATESVILLE    PTCLDY    61  54  77 CALM      29.98F
POTTSTOWN      MOSUNNY   56  49  77 CALM      29.99F
BLUE BELL      PTSUNNY   55  50  82 SE3       29.98S
DOYLESTOWN     MOSUNNY   55  50  83 SW6       29.98F
WILLOW GROVE   NOT AVBL
NORTH PHILA    CLOUDY    58  52  80 S5        30.01S HAZE
PHILADELPHIA   PTSUNNY   60  52  74 S6        29.99F
$$




USA.gov is the U.S. government's official web portal to all federal, state and local government web resources and services.